Time,TemperatureF,DewpointF,PressureIn,WindDirection,WindDirectionDegrees,WindSpeedMPH,WindSpeedGustMPH,Humidity,HourlyPrecipIn,Conditions,Clouds,dailyrainin,SolarRadiationWatts/m^2,SoftwareType,DateUTC
2013-08-29 00:00:00,70.7,70.7,29.95,SW,234,0.0,0.0,100,0.00,,,0.00,0,Wunderground v.1.15,2013-08-29 04:00:00,
2013-08-29 00:01:00,70.7,70.7,29.95,SW,233,0.0,0.0,100,0.00,,,0.00,0,Wunderground v.1.15,2013-08-29 04:01:00,
2013-08-29 00:02:00,70.7,70.7,29.95,SW,236,0.0,0.0,100,0.00,,,0.00,0,Wunderground v.1.15,2013-08-29 04:02:00,
2013-08-29 00:07:00,70.8,70.8,29.94,SW,231,0.0,0.0,100,0.00,,,0.00,0,Wunderground v.1.15,2013-08-29 04:07:00,
2013-08-29 00:12:00,70.8,70.8,29.94,SW,234,0.0,0.0,100,0.00,,,0.00,0,Wunderground v.1.15,2013-08-29 04:12:00,
2013-08-29 00:13:00,70.8,70.8,29.94,SW,231,0.0,1.0,100,0.00,,,0.00,0,Wunderground v.1.15,2013-08-29 04:13:00,
2013-08-29 00:19:00,70.8,70.8,29.94,SW,233,1.0,2.0,100,0.00,,,0.00,0,Wunderground v.1.15,2013-08-29 04:19:00,
2013-08-29 00:24:00,70.8,70.8,29.94,SW,234,2.0,2.0,100,0.00,,,0.00,0,Wunderground v.1.15,2013-08-29 04:24:00,
2013-08-29 00:30:00,70.8,70.8,29.95,SW,233,1.0,1.0,100,0.00,,,0.00,0,Wunderground v.1.15,2013-08-29 04:30:00,
2013-08-29 00:35:00,70.8,70.8,29.95,SW,231,0.0,1.0,100,0.00,,,0.00,0,Wunderground v.1.15,2013-08-29 04:35:00,
2013-08-29 00:41:00,70.9,70.9,29.95,SW,233,0.0,0.0,100,0.00,,,0.00,0,Wunderground v.1.15,2013-08-29 04:41:00,
2013-08-29 00:46:00,70.9,70.9,29.95,SW,229,0.0,0.0,100,0.00,,,0.00,0,Wunderground v.1.15,2013-08-29 04:46:00,
2013-08-29 00:51:00,70.9,70.9,29.95,SW,233,0.0,0.0,100,0.00,,,0.00,0,Wunderground v.1.15,2013-08-29 04:51:00,
2013-08-29 00:56:00,70.9,70.9,29.95,SW,234,0.0,1.0,100,0.00,,,0.00,0,Wunderground v.1.15,2013-08-29 04:56:00,
2013-08-29 01:02:00,70.9,70.9,29.95,SW,232,0.0,0.0,100,0.00,,,0.00,0,Wunderground v.1.15,2013-08-29 05:02:00,
2013-08-29 01:07:00,70.9,70.9,29.95,SW,235,0.0,0.0,100,0.00,,,0.00,0,Wunderground v.1.15,2013-08-29 05:07:00,
2013-08-29 01:12:00,70.9,70.9,29.95,SW,233,0.0,2.0,100,0.00,,,0.00,0,Wunderground v.1.15,2013-08-29 05:12:00,
2013-08-29 01:18:00,70.8,70.8,29.95,SW,232,1.0,2.0,100,0.00,,,0.00,0,Wunderground v.1.15,2013-08-29 05:18:00,
2013-08-29 01:23:00,70.8,70.8,29.94,SW,231,0.0,1.0,100,0.00,,,0.00,0,Wunderground v.1.15,2013-08-29 05:23:00,
2013-08-29 01:29:00,70.8,70.8,29.94,SW,231,0.0,1.0,100,0.00,,,0.00,0,Wunderground v.1.15,2013-08-29 05:29:00,
2013-08-29 01:34:00,70.8,70.8,29.94,SW,233,0.0,2.0,100,0.00,,,0.00,0,Wunderground v.1.15,2013-08-29 05:34:00,
2013-08-29 01:39:00,70.8,70.8,29.94,SW,234,1.0,2.0,100,0.00,,,0.00,0,Wunderground v.1.15,2013-08-29 05:39:00,
2013-08-29 01:45:00,70.8,70.8,29.94,SW,231,1.0,2.0,100,0.00,,,0.00,0,Wunderground v.1.15,2013-08-29 05:45:00,
2013-08-29 01:50:00,70.8,70.8,29.94,SW,234,0.0,0.0,100,0.00,,,0.00,0,Wunderground v.1.15,2013-08-29 05:50:00,
2013-08-29 01:56:00,70.8,70.8,29.94,SW,231,0.0,0.0,100,0.00,,,0.00,0,Wunderground v.1.15,2013-08-29 05:56:00,
2013-08-29 02:02:00,70.8,70.8,29.94,SW,231,0.0,0.0,100,0.00,,,0.00,0,Wunderground v.1.15,2013-08-29 06:02:00,
2013-08-29 02:07:00,70.8,70.8,29.94,SW,234,0.0,0.0,100,0.00,,,0.00,0,Wunderground v.1.15,2013-08-29 06:07:00,
2013-08-29 02:12:00,70.8,70.8,29.94,SW,231,0.0,0.0,100,0.00,,,0.00,0,Wunderground v.1.15,2013-08-29 06:12:00,
2013-08-29 02:18:00,70.8,70.8,29.95,SW,234,0.0,0.0,100,0.00,,,0.00,0,Wunderground v.1.15,2013-08-29 06:18:00,
2013-08-29 02:23:00,70.8,70.8,29.95,SW,233,0.0,0.0,100,0.00,,,0.00,0,Wunderground v.1.15,2013-08-29 06:23:00,
2013-08-29 02:28:00,70.8,70.8,29.95,SW,232,0.0,0.0,100,0.00,,,0.00,0,Wunderground v.1.15,2013-08-29 06:28:00,
2013-08-29 02:34:00,70.7,70.7,29.95,SW,233,0.0,1.0,100,0.00,,,0.00,0,Wunderground v.1.15,2013-08-29 06:34:00,
2013-08-29 02:39:00,70.7,70.7,29.95,SW,233,0.0,1.0,100,0.00,,,0.00,0,Wunderground v.1.15,2013-08-29 06:39:00,
2013-08-29 02:44:00,70.7,70.7,29.95,SW,234,0.0,0.0,100,0.00,,,0.00,0,Wunderground v.1.15,2013-08-29 06:44:00,
2013-08-29 02:50:00,70.7,70.7,29.96,SW,234,0.0,0.0,100,0.00,,,0.00,0,Wunderground v.1.15,2013-08-29 06:50:00,
2013-08-29 02:55:00,70.7,70.7,29.96,SW,229,0.0,0.0,100,0.00,,,0.00,0,Wunderground v.1.15,2013-08-29 06:55:00,
2013-08-29 03:00:00,70.7,70.7,29.96,SW,233,0.0,0.0,100,0.00,,,0.00,0,Wunderground v.1.15,2013-08-29 07:00:00,
2013-08-29 03:06:00,70.8,70.8,29.96,SW,234,0.0,0.0,100,0.00,,,0.00,0,Wunderground v.1.15,2013-08-29 07:06:00,
2013-08-29 03:11:00,70.7,70.7,29.96,SW,232,0.0,0.0,100,0.00,,,0.00,0,Wunderground v.1.15,2013-08-29 07:11:00,
2013-08-29 03:16:00,70.7,70.7,29.96,SW,230,0.0,0.0,100,0.00,,,0.00,0,Wunderground v.1.15,2013-08-29 07:16:00,
2013-08-29 03:21:00,70.8,70.8,29.97,SW,230,0.0,0.0,100,0.00,,,0.00,0,Wunderground v.1.15,2013-08-29 07:21:00,
2013-08-29 03:27:00,70.8,70.8,29.96,SW,234,0.0,0.0,100,0.00,,,0.00,0,Wunderground v.1.15,2013-08-29 07:27:00,
2013-08-29 03:32:00,70.8,70.8,29.96,SW,231,0.0,0.0,100,0.00,,,0.00,0,Wunderground v.1.15,2013-08-29 07:32:00,
2013-08-29 03:37:00,70.8,70.8,29.96,SW,233,0.0,0.0,100,0.00,,,0.00,0,Wunderground v.1.15,2013-08-29 07:37:00,
2013-08-29 03:42:00,70.7,70.7,29.96,SW,231,0.0,0.0,100,0.00,,,0.00,0,Wunderground v.1.15,2013-08-29 07:42:00,
2013-08-29 03:48:00,70.7,70.7,29.96,SW,230,0.0,0.0,100,0.00,,,0.00,0,Wunderground v.1.15,2013-08-29 07:48:00,
2013-08-29 03:53:00,70.8,70.8,29.96,SW,234,0.0,0.0,100,0.00,,,0.00,0,Wunderground v.1.15,2013-08-29 07:53:00,
2013-08-29 03:59:00,70.8,70.8,29.97,SW,234,0.0,0.0,100,0.00,,,0.00,0,Wunderground v.1.15,2013-08-29 07:59:00,
2013-08-29 04:05:00,70.8,70.8,29.97,SW,233,0.0,0.0,100,0.00,,,0.00,0,Wunderground v.1.15,2013-08-29 08:05:00,
2013-08-29 04:10:00,70.8,70.8,29.97,SW,230,0.0,0.0,100,0.00,,,0.00,0,Wunderground v.1.15,2013-08-29 08:10:00,
2013-08-29 04:15:00,70.8,70.8,29.97,SW,233,0.0,0.0,100,0.00,,,0.00,0,Wunderground v.1.15,2013-08-29 08:15:00,
2013-08-29 04:20:00,70.9,70.9,29.97,SW,231,0.0,0.0,100,0.00,,,0.00,0,Wunderground v.1.15,2013-08-29 08:20:00,
2013-08-29 04:26:00,70.9,70.9,29.98,SW,232,0.0,0.0,100,0.00,,,0.00,0,Wunderground v.1.15,2013-08-29 08:26:00,
2013-08-29 04:31:00,70.9,70.9,29.98,North,5,0.0,0.0,100,0.00,,,0.00,0,Wunderground v.1.15,2013-08-29 08:31:00,
2013-08-29 04:36:00,70.9,70.9,29.98,North,5,0.0,0.0,100,0.00,,,0.00,0,Wunderground v.1.15,2013-08-29 08:36:00,
2013-08-29 04:42:00,70.9,70.9,29.98,North,5,0.0,0.0,100,0.00,,,0.00,0,Wunderground v.1.15,2013-08-29 08:42:00,
2013-08-29 04:47:00,70.9,70.9,29.98,North,5,0.0,0.0,100,0.00,,,0.00,0,Wunderground v.1.15,2013-08-29 08:47:00,
2013-08-29 04:52:00,70.9,70.9,29.98,North,5,0.0,0.0,100,0.00,,,0.00,0,Wunderground v.1.15,2013-08-29 08:52:00,
2013-08-29 04:58:00,70.9,70.9,29.98,North,9,0.0,0.0,100,0.00,,,0.00,0,Wunderground v.1.15,2013-08-29 08:58:00,
2013-08-29 05:04:00,70.9,70.9,29.98,North,5,0.0,0.0,100,0.00,,,0.00,0,Wunderground v.1.15,2013-08-29 09:04:00,
2013-08-29 05:09:00,70.9,70.9,29.98,North,5,0.0,0.0,100,0.00,,,0.00,0,Wunderground v.1.15,2013-08-29 09:09:00,
2013-08-29 05:14:00,70.9,70.9,29.99,North,5,0.0,0.0,100,0.00,,,0.00,0,Wunderground v.1.15,2013-08-29 09:14:00,
2013-08-29 05:20:00,70.9,70.9,29.99,North,5,0.0,0.0,100,0.00,,,0.00,0,Wunderground v.1.15,2013-08-29 09:20:00,
2013-08-29 05:25:00,70.9,70.9,29.99,WNW,292,0.0,3.0,100,0.00,,,0.00,0,Wunderground v.1.15,2013-08-29 09:25:00,
2013-08-29 05:30:00,70.9,70.9,29.99,WNW,293,1.0,1.0,100,0.00,,,0.00,0,Wunderground v.1.15,2013-08-29 09:30:00,
2013-08-29 05:36:00,70.8,70.8,29.99,WNW,293,1.0,1.0,100,0.00,,,0.00,0,Wunderground v.1.15,2013-08-29 09:36:00,
2013-08-29 05:41:00,70.8,70.8,29.99,WNW,294,0.0,0.0,100,0.00,,,0.00,0,Wunderground v.1.15,2013-08-29 09:41:00,
2013-08-29 05:46:00,70.7,70.7,29.99,WNW,294,0.0,0.0,100,0.00,,,0.00,0,Wunderground v.1.15,2013-08-29 09:46:00,
2013-08-29 05:51:00,70.7,70.7,29.99,WNW,293,0.0,0.0,100,0.00,,,0.00,0,Wunderground v.1.15,2013-08-29 09:51:00,
2013-08-29 05:57:00,70.6,70.6,30.00,WNW,293,0.0,1.0,100,0.00,,,0.00,0,Wunderground v.1.15,2013-08-29 09:57:00,
2013-08-29 06:03:00,70.6,70.6,30.00,WNW,294,0.0,0.0,100,0.00,,,0.00,0,Wunderground v.1.15,2013-08-29 10:03:00,
2013-08-29 06:08:00,70.5,70.5,30.00,WNW,291,0.0,0.0,100,0.00,,,0.00,0,Wunderground v.1.15,2013-08-29 10:08:00,
2013-08-29 06:14:00,70.5,70.5,30.00,WNW,292,0.0,0.0,100,0.00,,,0.00,0,Wunderground v.1.15,2013-08-29 10:14:00,
2013-08-29 06:19:00,70.4,70.4,30.00,WNW,292,0.0,1.0,100,0.00,,,0.00,0,Wunderground v.1.15,2013-08-29 10:19:00,
2013-08-29 06:24:00,70.4,70.4,30.01,WNW,296,1.0,1.0,100,0.00,,,0.00,0,Wunderground v.1.15,2013-08-29 10:24:00,
2013-08-29 06:29:00,70.4,70.4,30.01,WNW,293,0.0,1.0,100,0.00,,,0.00,0,Wunderground v.1.15,2013-08-29 10:29:00,
2013-08-29 06:35:00,70.4,70.4,30.01,WNW,294,0.0,1.0,100,0.00,,,0.00,0,Wunderground v.1.15,2013-08-29 10:35:00,
2013-08-29 06:40:00,70.5,70.5,30.01,WNW,294,0.0,0.0,100,0.00,,,0.00,0,Wunderground v.1.15,2013-08-29 10:40:00,
2013-08-29 06:45:00,70.5,70.5,30.01,WNW,292,0.0,1.0,100,0.00,,,0.00,0,Wunderground v.1.15,2013-08-29 10:45:00,
2013-08-29 06:51:00,70.5,70.5,30.02,WNW,291,0.0,0.0,100,0.00,,,0.00,0,Wunderground v.1.15,2013-08-29 10:51:00,
2013-08-29 06:56:00,70.5,70.5,30.02,WNW,292,0.0,0.0,100,0.00,,,0.00,5,Wunderground v.1.15,2013-08-29 10:56:00,
2013-08-29 07:02:00,70.5,70.5,30.02,WNW,293,0.0,0.0,100,0.00,,,0.00,9,Wunderground v.1.15,2013-08-29 11:02:00,
2013-08-29 07:07:00,70.5,70.5,30.03,WNW,292,0.0,0.0,100,0.00,,,0.00,12,Wunderground v.1.15,2013-08-29 11:07:00,
2013-08-29 07:13:00,70.5,70.5,30.03,WNW,294,0.0,0.0,100,0.00,,,0.00,16,Wunderground v.1.15,2013-08-29 11:13:00,
2013-08-29 07:18:00,70.5,70.5,30.03,WNW,290,0.0,0.0,100,0.00,,,0.00,14,Wunderground v.1.15,2013-08-29 11:18:00,
2013-08-29 07:23:00,70.6,70.6,30.03,WNW,292,0.0,0.0,100,0.00,,,0.00,16,Wunderground v.1.15,2013-08-29 11:23:00,
2013-08-29 07:29:00,70.6,70.6,30.03,WNW,290,0.0,0.0,100,0.00,,,0.00,19,Wunderground v.1.15,2013-08-29 11:29:00,
2013-08-29 07:34:00,70.6,70.6,30.04,North,360,0.0,0.0,100,0.00,,,0.00,16,Wunderground v.1.15,2013-08-29 11:34:00,
2013-08-29 07:39:00,70.7,70.7,30.04,NE,36,0.0,0.0,100,0.00,,,0.00,14,Wunderground v.1.15,2013-08-29 11:39:00,
2013-08-29 07:45:00,70.7,70.7,30.04,NE,37,0.0,0.0,100,0.00,,,0.00,25,Wunderground v.1.15,2013-08-29 11:45:00,
2013-08-29 07:50:00,70.7,70.7,30.04,NE,39,0.0,1.0,100,0.00,,,0.00,23,Wunderground v.1.15,2013-08-29 11:50:00,
2013-08-29 07:55:00,70.8,70.8,30.04,NE,35,0.0,1.0,100,0.00,,,0.00,30,Wunderground v.1.15,2013-08-29 11:55:00,
2013-08-29 08:00:00,70.8,70.8,30.05,NE,36,0.0,0.0,100,0.00,,,0.00,40,Wunderground v.1.15,2013-08-29 12:00:00,
2013-08-29 08:06:00,71.0,71.0,30.05,NE,37,0.0,0.0,100,0.00,,,0.00,54,Wunderground v.1.15,2013-08-29 12:06:00,
2013-08-29 08:11:00,71.1,71.1,30.05,NE,36,0.0,0.0,100,0.00,,,0.00,62,Wunderground v.1.15,2013-08-29 12:11:00,
2013-08-29 08:16:00,71.1,71.1,30.05,NE,36,0.0,0.0,100,0.00,,,0.00,77,Wunderground v.1.15,2013-08-29 12:16:00,
2013-08-29 08:21:00,71.2,71.2,30.05,NE,37,0.0,0.0,100,0.00,,,0.00,93,Wunderground v.1.15,2013-08-29 12:21:00,
2013-08-29 08:27:00,71.3,71.3,30.05,NE,36,0.0,0.0,100,0.00,,,0.00,95,Wunderground v.1.15,2013-08-29 12:27:00,
2013-08-29 08:32:00,71.4,71.4,30.05,NE,35,0.0,0.0,100,0.00,,,0.00,88,Wunderground v.1.15,2013-08-29 12:32:00,
2013-08-29 08:37:00,71.6,71.6,30.05,NE,37,0.0,0.0,100,0.00,,,0.00,114,Wunderground v.1.15,2013-08-29 12:37:00,
2013-08-29 08:43:00,71.7,71.7,30.06,NE,36,0.0,0.0,100,0.00,,,0.00,128,Wunderground v.1.15,2013-08-29 12:43:00,
2013-08-29 08:48:00,71.8,71.8,30.06,NE,36,0.0,1.0,100,0.00,,,0.00,116,Wunderground v.1.15,2013-08-29 12:48:00,
2013-08-29 08:53:00,71.7,71.7,30.06,NE,36,1.0,2.0,100,0.00,,,0.00,130,Wunderground v.1.15,2013-08-29 12:53:00,
2013-08-29 08:59:00,71.7,71.7,30.06,NE,34,1.0,2.0,100,0.00,,,0.00,151,Wunderground v.1.15,2013-08-29 12:59:00,
2013-08-29 09:04:00,71.9,71.9,30.05,NE,38,0.0,2.0,100,0.00,,,0.00,144,Wunderground v.1.15,2013-08-29 13:04:00,
2013-08-29 09:10:00,72.0,72.0,30.06,NE,36,0.0,0.0,100,0.00,,,0.00,123,Wunderground v.1.15,2013-08-29 13:10:00,
2013-08-29 09:15:00,72.1,72.1,30.06,NE,36,0.0,0.0,100,0.00,,,0.00,98,Wunderground v.1.15,2013-08-29 13:15:00,
2013-08-29 09:20:00,72.3,72.3,30.06,NE,36,0.0,0.0,100,0.00,,,0.00,144,Wunderground v.1.15,2013-08-29 13:20:00,
2013-08-29 09:26:00,72.5,72.2,30.06,ENE,63,0.0,2.0,99,0.00,,,0.00,200,Wunderground v.1.15,2013-08-29 13:26:00,
2013-08-29 09:31:00,72.9,72.6,30.05,ENE,63,1.0,2.0,99,0.00,,,0.00,343,Wunderground v.1.15,2013-08-29 13:31:00,
2013-08-29 09:37:00,73.2,72.3,30.06,ENE,63,1.0,2.0,97,0.00,,,0.00,141,Wunderground v.1.15,2013-08-29 13:37:00,
2013-08-29 09:42:00,73.4,72.2,30.06,ENE,60,1.0,4.0,96,0.00,,,0.00,113,Wunderground v.1.15,2013-08-29 13:42:00,
2013-08-29 09:47:00,73.4,72.2,30.06,ENE,59,1.0,4.0,96,0.00,,,0.00,174,Wunderground v.1.15,2013-08-29 13:47:00,
2013-08-29 09:52:00,73.7,72.5,30.06,ENE,59,0.0,1.0,96,0.00,,,0.00,257,Wunderground v.1.15,2013-08-29 13:52:00,
2013-08-29 09:58:00,74.0,72.5,30.06,ENE,59,0.0,1.0,95,0.00,,,0.00,325,Wunderground v.1.15,2013-08-29 13:58:00,
2013-08-29 10:04:00,74.4,72.2,30.06,NE,40,1.0,5.0,93,0.00,,,0.00,281,Wunderground v.1.15,2013-08-29 14:04:00,
2013-08-29 10:09:00,74.6,72.1,30.07,NNE,31,3.0,8.0,92,0.00,,,0.00,410,Wunderground v.1.15,2013-08-29 14:09:00,
2013-08-29 10:15:00,75.0,72.2,30.07,North,5,4.0,7.0,91,0.00,,,0.00,220,Wunderground v.1.15,2013-08-29 14:15:00,
2013-08-29 10:20:00,75.1,72.3,30.07,ENE,67,4.0,4.0,91,0.00,,,0.00,185,Wunderground v.1.15,2013-08-29 14:20:00,
2013-08-29 10:25:00,75.2,72.4,30.07,NE,48,3.0,4.0,91,0.00,,,0.00,206,Wunderground v.1.15,2013-08-29 14:25:00,
2013-08-29 10:31:00,75.2,71.7,30.07,NE,56,3.0,4.0,89,0.00,,,0.00,214,Wunderground v.1.15,2013-08-29 14:31:00,
2013-08-29 10:36:00,75.3,71.8,30.07,NE,55,2.0,4.0,89,0.00,,,0.00,348,Wunderground v.1.15,2013-08-29 14:36:00,
2013-08-29 10:41:00,75.8,73.0,30.07,ESE,103,1.0,2.0,91,0.00,,,0.00,731,Wunderground v.1.15,2013-08-29 14:41:00,
2013-08-29 10:47:00,76.4,72.6,30.07,East,82,2.0,5.0,88,0.00,,,0.00,357,Wunderground v.1.15,2013-08-29 14:47:00,
2013-08-29 10:52:00,76.6,72.1,30.07,NE,43,2.0,2.0,86,0.00,,,0.00,223,Wunderground v.1.15,2013-08-29 14:52:00,
2013-08-29 10:57:00,76.8,72.3,30.07,NE,41,1.0,2.0,86,0.00,,,0.00,188,Wunderground v.1.15,2013-08-29 14:57:00,
2013-08-29 11:03:00,76.9,72.0,30.07,NE,40,1.0,3.0,85,0.00,,,0.00,183,Wunderground v.1.15,2013-08-29 15:03:00,
2013-08-29 11:08:00,76.8,71.9,30.07,NE,46,2.0,4.0,85,0.00,,,0.00,264,Wunderground v.1.15,2013-08-29 15:08:00,
2013-08-29 11:14:00,77.0,72.5,30.07,NE,44,2.0,2.0,86,0.00,,,0.00,392,Wunderground v.1.15,2013-08-29 15:14:00,
2013-08-29 11:19:00,77.3,73.5,30.07,NNE,26,1.0,2.0,88,0.00,,,0.00,448,Wunderground v.1.15,2013-08-29 15:19:00,
2013-08-29 11:25:00,77.5,72.3,30.07,NNE,21,1.0,2.0,84,0.00,,,0.00,847,Wunderground v.1.15,2013-08-29 15:25:00,
2013-08-29 11:30:00,77.8,72.2,30.07,NE,50,1.0,2.0,83,0.00,,,0.00,919,Wunderground v.1.15,2013-08-29 15:30:00,
2013-08-29 11:35:00,78.1,72.9,30.07,ENE,57,3.0,7.0,84,0.00,,,0.00,503,Wunderground v.1.15,2013-08-29 15:35:00,
2013-08-29 11:41:00,78.3,72.0,30.07,North,9,3.0,3.0,81,0.00,,,0.00,1023,Wunderground v.1.15,2013-08-29 15:41:00,
2013-08-29 11:46:00,78.8,73.2,30.07,NE,44,3.0,4.0,83,0.00,,,0.00,1044,Wunderground v.1.15,2013-08-29 15:46:00,
2013-08-29 11:51:00,79.0,73.0,30.08,NE,43,4.0,4.0,82,0.00,,,0.00,362,Wunderground v.1.15,2013-08-29 15:51:00,
2013-08-29 11:57:00,78.7,72.4,30.08,ENE,65,5.0,7.0,81,0.00,,,0.00,292,Wunderground v.1.15,2013-08-29 15:57:00,
2013-08-29 12:03:00,78.6,72.3,30.08,East,86,3.0,5.0,81,0.00,,,0.00,278,Wunderground v.1.15,2013-08-29 16:03:00,
2013-08-29 12:08:00,78.5,71.8,30.08,East,86,1.0,5.0,80,0.00,,,0.00,315,Wunderground v.1.15,2013-08-29 16:08:00,
2013-08-29 12:13:00,78.5,72.2,30.08,East,82,1.0,1.0,81,0.00,,,0.00,436,Wunderground v.1.15,2013-08-29 16:13:00,
2013-08-29 12:19:00,78.7,73.1,30.08,ESE,105,0.0,2.0,83,0.00,,,0.00,387,Wunderground v.1.15,2013-08-29 16:19:00,
2013-08-29 12:24:00,79.2,72.5,30.08,ESE,105,1.0,1.0,80,0.00,,,0.00,1035,Wunderground v.1.15,2013-08-29 16:24:00,
2013-08-29 12:29:00,79.7,73.0,30.08,East,84,0.0,2.0,80,0.00,,,0.00,1048,Wunderground v.1.15,2013-08-29 16:29:00,
2013-08-29 12:35:00,80.1,72.6,30.08,ENE,76,1.0,4.0,78,0.00,,,0.00,1053,Wunderground v.1.15,2013-08-29 16:35:00,
2013-08-29 12:40:00,80.7,72.4,30.07,North,360,1.0,4.0,76,0.00,,,0.00,1035,Wunderground v.1.15,2013-08-29 16:40:00,
2013-08-29 12:45:00,81.1,73.2,30.07,ENE,64,2.0,6.0,77,0.00,,,0.00,1067,Wunderground v.1.15,2013-08-29 16:45:00,
2013-08-29 12:51:00,81.1,72.8,30.07,ENE,65,2.0,3.0,76,0.00,,,0.00,258,Wunderground v.1.15,2013-08-29 16:51:00,
2013-08-29 12:56:00,80.8,72.5,30.07,NE,34,2.0,4.0,76,0.00,,,0.00,269,Wunderground v.1.15,2013-08-29 16:56:00,
2013-08-29 13:02:00,80.9,73.8,30.07,NNE,22,3.0,6.0,79,0.00,,,0.00,355,Wunderground v.1.15,2013-08-29 17:02:00,
2013-08-29 13:07:00,81.2,72.9,30.07,NE,53,2.0,6.0,76,0.00,,,0.00,844,Wunderground v.1.15,2013-08-29 17:07:00,
2013-08-29 13:13:00,81.9,72.8,30.07,NNW,344,2.0,5.0,74,0.00,,,0.00,1102,Wunderground v.1.15,2013-08-29 17:13:00,
2013-08-29 13:18:00,82.3,73.6,30.07,ENE,67,4.0,9.0,75,0.00,,,0.00,287,Wunderground v.1.15,2013-08-29 17:18:00,
2013-08-29 13:23:00,82.0,73.7,30.07,East,92,6.0,8.0,76,0.00,,,0.00,265,Wunderground v.1.15,2013-08-29 17:23:00,
2013-08-29 13:29:00,81.4,73.1,30.07,NE,55,5.0,8.0,76,0.00,,,0.00,265,Wunderground v.1.15,2013-08-29 17:29:00,
2013-08-29 13:34:00,81.5,72.4,30.07,NE,55,3.0,5.0,74,0.00,,,0.00,401,Wunderground v.1.15,2013-08-29 17:34:00,
2013-08-29 13:39:00,81.7,72.2,30.07,ENE,57,0.0,5.0,73,0.00,,,0.00,1072,Wunderground v.1.15,2013-08-29 17:39:00,
2013-08-29 13:45:00,82.1,72.6,30.07,NE,56,0.0,0.0,73,0.00,,,0.00,297,Wunderground v.1.15,2013-08-29 17:45:00,
2013-08-29 13:50:00,82.4,74.1,30.07,ESE,107,1.0,1.0,76,0.00,,,0.00,316,Wunderground v.1.15,2013-08-29 17:50:00,
2013-08-29 13:55:00,82.7,73.2,30.07,NNW,333,2.0,4.0,73,0.00,,,0.00,889,Wunderground v.1.15,2013-08-29 17:55:00,
2013-08-29 14:00:00,83.3,74.1,30.07,NW,323,2.0,2.0,74,0.00,,,0.00,926,Wunderground v.1.15,2013-08-29 18:00:00,
2013-08-29 14:06:00,83.6,74.4,30.07,East,99,3.0,8.0,74,0.00,,,0.00,313,Wunderground v.1.15,2013-08-29 18:06:00,
2013-08-29 14:11:00,83.8,74.2,30.07,ESE,110,4.0,4.0,73,0.00,,,0.00,863,Wunderground v.1.15,2013-08-29 18:11:00,
2013-08-29 14:16:00,84.0,73.6,30.07,NE,54,3.0,4.0,71,0.00,,,0.00,870,Wunderground v.1.15,2013-08-29 18:16:00,
2013-08-29 14:21:00,84.1,73.3,30.07,NNE,25,2.0,4.0,70,0.00,,,0.00,868,Wunderground v.1.15,2013-08-29 18:21:00,
2013-08-29 14:27:00,84.4,74.4,30.06,ENE,71,2.0,4.0,72,0.00,,,0.00,860,Wunderground v.1.15,2013-08-29 18:27:00,
2013-08-29 14:32:00,84.4,72.7,30.06,ENE,75,2.0,2.0,68,0.00,,,0.00,867,Wunderground v.1.15,2013-08-29 18:32:00,
2013-08-29 14:37:00,84.3,73.0,30.06,ESE,111,1.0,2.0,69,0.00,,,0.00,835,Wunderground v.1.15,2013-08-29 18:37:00,
2013-08-29 14:43:00,84.5,72.8,30.06,East,91,2.0,4.0,68,0.00,,,0.00,833,Wunderground v.1.15,2013-08-29 18:43:00,
2013-08-29 14:48:00,84.6,73.3,30.06,East,88,4.0,5.0,69,0.00,,,0.00,155,Wunderground v.1.15,2013-08-29 18:48:00,
2013-08-29 14:53:00,84.3,73.0,30.06,ESE,107,4.0,4.0,69,0.00,,,0.00,132,Wunderground v.1.15,2013-08-29 18:53:00,
2013-08-29 14:59:00,84.0,73.6,30.05,ESE,107,2.0,4.0,71,0.00,,,0.00,146,Wunderground v.1.15,2013-08-29 18:59:00,
2013-08-29 15:05:00,84.1,71.1,30.05,ESE,104,0.0,1.0,65,0.00,,,0.00,782,Wunderground v.1.15,2013-08-29 19:05:00,
2013-08-29 15:10:00,84.6,73.7,30.05,ESE,103,0.0,1.0,70,0.00,,,0.00,773,Wunderground v.1.15,2013-08-29 19:10:00,
2013-08-29 15:15:00,84.7,73.8,30.05,ENE,71,3.0,7.0,70,0.00,,,0.00,745,Wunderground v.1.15,2013-08-29 19:15:00,
2013-08-29 15:21:00,84.7,75.1,30.05,ENE,65,6.0,6.0,73,0.00,,,0.00,749,Wunderground v.1.15,2013-08-29 19:21:00,
2013-08-29 15:26:00,84.3,73.4,30.05,East,92,5.0,6.0,70,0.00,,,0.00,520,Wunderground v.1.15,2013-08-29 19:26:00,
2013-08-29 15:31:00,84.1,73.7,30.05,ESE,121,2.0,3.0,71,0.00,,,0.00,95,Wunderground v.1.15,2013-08-29 19:31:00,
2013-08-29 15:37:00,83.8,72.5,30.05,SE,130,1.0,3.0,69,0.00,,,0.00,95,Wunderground v.1.15,2013-08-29 19:37:00,
2013-08-29 15:42:00,83.5,73.1,30.05,SE,130,1.0,1.0,71,0.00,,,0.00,100,Wunderground v.1.15,2013-08-29 19:42:00,
2013-08-29 15:47:00,83.3,72.9,30.05,SE,128,0.0,1.0,71,0.00,,,0.00,638,Wunderground v.1.15,2013-08-29 19:47:00,
2013-08-29 15:52:00,84.0,72.3,30.05,SE,127,0.0,1.0,68,0.00,,,0.00,633,Wunderground v.1.15,2013-08-29 19:52:00,
2013-08-29 15:58:00,85.0,71.9,30.04,SE,129,0.0,1.0,65,0.00,,,0.00,640,Wunderground v.1.15,2013-08-29 19:58:00,
2013-08-29 16:04:00,85.7,73.0,30.04,ENE,69,2.0,7.0,66,0.00,,,0.00,622,Wunderground v.1.15,2013-08-29 20:04:00,
2013-08-29 16:09:00,85.6,72.9,30.04,ESE,113,3.0,7.0,66,0.00,,,0.00,612,Wunderground v.1.15,2013-08-29 20:09:00,
2013-08-29 16:15:00,85.9,72.3,30.04,ESE,122,2.0,3.0,64,0.00,,,0.00,608,Wunderground v.1.15,2013-08-29 20:15:00,
2013-08-29 16:20:00,85.9,74.1,30.04,SSE,148,0.0,0.0,68,0.00,,,0.00,619,Wunderground v.1.15,2013-08-29 20:20:00,
2013-08-29 16:25:00,85.9,74.5,30.04,ENE,73,2.0,7.0,69,0.00,,,0.00,580,Wunderground v.1.15,2013-08-29 20:25:00,
2013-08-29 16:30:00,85.6,72.9,30.05,East,94,4.0,4.0,66,0.00,,,0.00,519,Wunderground v.1.15,2013-08-29 20:30:00,
2013-08-29 16:36:00,85.6,73.4,30.05,East,80,5.0,9.0,67,0.00,,,0.00,512,Wunderground v.1.15,2013-08-29 20:36:00,
2013-08-29 16:41:00,85.9,72.8,30.05,ESE,117,4.0,4.0,65,0.00,,,0.00,483,Wunderground v.1.15,2013-08-29 20:41:00,
2013-08-29 16:46:00,86.1,73.4,30.05,ENE,74,3.0,4.0,66,0.00,,,0.00,475,Wunderground v.1.15,2013-08-29 20:46:00,
2013-08-29 16:52:00,86.3,73.1,30.05,East,100,2.0,2.0,65,0.00,,,0.00,461,Wunderground v.1.15,2013-08-29 20:52:00,
2013-08-29 16:57:00,86.7,74.0,30.05,East,97,1.0,2.0,66,0.00,,,0.00,443,Wunderground v.1.15,2013-08-29 20:57:00,
2013-08-29 17:03:00,86.7,73.1,30.05,ESE,105,2.0,2.0,64,0.00,,,0.00,438,Wunderground v.1.15,2013-08-29 21:03:00,
2013-08-29 17:08:00,86.9,73.7,30.05,ESE,108,1.0,3.0,65,0.00,,,0.00,434,Wunderground v.1.15,2013-08-29 21:08:00,
2013-08-29 17:14:00,87.0,74.3,30.05,East,93,1.0,7.0,66,0.00,,,0.00,411,Wunderground v.1.15,2013-08-29 21:14:00,
2013-08-29 17:19:00,87.1,73.4,30.05,East,90,3.0,7.0,64,0.00,,,0.00,380,Wunderground v.1.15,2013-08-29 21:19:00,
2013-08-29 17:24:00,87.1,73.4,30.05,East,100,4.0,5.0,64,0.00,,,0.00,362,Wunderground v.1.15,2013-08-29 21:24:00,
2013-08-29 17:30:00,87.2,73.1,30.05,SE,134,3.0,3.0,63,0.00,,,0.00,338,Wunderground v.1.15,2013-08-29 21:30:00,
2013-08-29 17:35:00,87.0,71.9,30.05,ESE,120,3.0,4.0,61,0.00,,,0.00,330,Wunderground v.1.15,2013-08-29 21:35:00,
2013-08-29 17:40:00,86.8,71.7,30.05,ESE,113,2.0,2.0,61,0.00,,,0.00,315,Wunderground v.1.15,2013-08-29 21:40:00,
2013-08-29 17:46:00,87.0,72.9,30.05,ESE,115,1.0,3.0,63,0.00,,,0.00,297,Wunderground v.1.15,2013-08-29 21:46:00,
2013-08-29 17:51:00,86.7,72.1,30.05,ESE,108,2.0,3.0,62,0.00,,,0.00,283,Wunderground v.1.15,2013-08-29 21:51:00,
2013-08-29 17:56:00,86.3,71.7,30.05,ESE,123,2.0,3.0,62,0.00,,,0.00,107,Wunderground v.1.15,2013-08-29 21:56:00,
2013-08-29 18:02:00,85.8,72.2,30.05,SE,127,2.0,3.0,64,0.00,,,0.00,63,Wunderground v.1.15,2013-08-29 22:02:00,
2013-08-29 18:07:00,85.3,71.7,30.05,ESE,115,2.0,3.0,64,0.00,,,0.00,63,Wunderground v.1.15,2013-08-29 22:07:00,
2013-08-29 18:13:00,84.8,72.2,30.05,East,92,2.0,6.0,66,0.00,,,0.00,53,Wunderground v.1.15,2013-08-29 22:13:00,
2013-08-29 18:18:00,84.3,71.7,30.05,SE,130,2.0,6.0,66,0.00,,,0.00,51,Wunderground v.1.15,2013-08-29 22:18:00,
2013-08-29 18:23:00,83.8,72.1,30.05,SE,130,2.0,4.0,68,0.00,,,0.00,54,Wunderground v.1.15,2013-08-29 22:23:00,
2013-08-29 18:29:00,82.9,72.9,30.05,SE,128,2.0,4.0,72,0.00,,,0.00,58,Wunderground v.1.15,2013-08-29 22:29:00,
2013-08-29 18:34:00,82.0,73.3,30.05,SE,128,1.0,2.0,75,0.00,,,0.00,47,Wunderground v.1.15,2013-08-29 22:34:00,
2013-08-29 18:39:00,81.4,72.7,30.05,NW,315,1.0,5.0,75,0.00,,,0.00,44,Wunderground v.1.15,2013-08-29 22:39:00,
2013-08-29 18:45:00,80.9,72.6,30.05,North,360,3.0,4.0,76,0.00,,,0.00,40,Wunderground v.1.15,2013-08-29 22:45:00,
2013-08-29 18:50:00,80.5,72.6,30.05,North,360,3.0,4.0,77,0.00,,,0.00,39,Wunderground v.1.15,2013-08-29 22:50:00,
2013-08-29 18:55:00,80.1,72.6,30.05,NW,323,4.0,6.0,78,0.00,,,0.00,35,Wunderground v.1.15,2013-08-29 22:55:00,
2013-08-29 19:00:00,79.4,72.3,30.05,NW,315,5.0,5.0,79,0.00,,,0.00,33,Wunderground v.1.15,2013-08-29 23:00:00,
2013-08-29 19:06:00,78.8,72.1,30.05,NW,317,5.0,6.0,80,0.00,,,0.00,30,Wunderground v.1.15,2013-08-29 23:06:00,
2013-08-29 19:11:00,78.2,71.9,30.05,North,360,6.0,6.0,81,0.00,,,0.00,26,Wunderground v.1.15,2013-08-29 23:11:00,
2013-08-29 19:16:00,77.6,72.0,30.05,NW,319,6.0,6.0,83,0.00,,,0.00,25,Wunderground v.1.15,2013-08-29 23:16:00,
2013-08-29 19:21:00,77.0,71.8,30.05,North,360,6.0,7.0,84,0.00,,,0.00,21,Wunderground v.1.15,2013-08-29 23:21:00,
2013-08-29 19:27:00,76.4,71.6,30.05,NW,304,6.0,7.0,85,0.00,,,0.00,19,Wunderground v.1.15,2013-08-29 23:27:00,
2013-08-29 19:32:00,76.0,71.5,30.06,North,360,5.0,6.0,86,0.00,,,0.00,16,Wunderground v.1.15,2013-08-29 23:32:00,
2013-08-29 19:37:00,75.5,71.4,30.05,WNW,283,4.0,6.0,87,0.00,,,0.00,12,Wunderground v.1.15,2013-08-29 23:37:00,
2013-08-29 19:43:00,75.2,71.7,30.06,WNW,290,3.0,4.0,89,0.00,,,0.00,9,Wunderground v.1.15,2013-08-29 23:43:00,
2013-08-29 19:48:00,74.9,71.4,30.06,West,277,2.0,4.0,89,0.00,,,0.00,5,Wunderground v.1.15,2013-08-29 23:48:00,
2013-08-29 19:54:00,74.6,71.5,30.06,WNW,282,3.0,3.0,90,0.00,,,0.00,0,Wunderground v.1.15,2013-08-29 23:54:00,
2013-08-29 19:59:00,74.2,71.1,30.06,WNW,282,3.0,3.0,90,0.00,,,0.00,0,Wunderground v.1.15,2013-08-29 23:59:00,
2013-08-29 20:05:00,73.9,70.8,30.06,WNW,286,1.0,2.0,90,0.00,,,0.00,0,Wunderground v.1.15,2013-08-30 00:05:00,
2013-08-29 20:10:00,73.6,70.8,30.06,WNW,285,0.0,1.0,91,0.00,,,0.00,0,Wunderground v.1.15,2013-08-30 00:10:00,
2013-08-29 20:15:00,73.3,70.5,30.06,WNW,285,0.0,3.0,91,0.00,,,0.00,0,Wunderground v.1.15,2013-08-30 00:15:00,
2013-08-29 20:21:00,73.0,70.2,30.06,WNW,285,1.0,1.0,91,0.00,,,0.00,0,Wunderground v.1.15,2013-08-30 00:21:00,
2013-08-29 20:26:00,72.7,70.2,30.06,WNW,285,1.0,1.0,92,0.00,,,0.00,0,Wunderground v.1.15,2013-08-30 00:26:00,
2013-08-29 20:32:00,72.5,70.4,30.06,WNW,286,1.0,2.0,93,0.00,,,0.00,0,Wunderground v.1.15,2013-08-30 00:32:00,
2013-08-29 20:37:00,72.2,69.7,30.06,WNW,283,2.0,3.0,92,0.00,,,0.00,0,Wunderground v.1.15,2013-08-30 00:37:00,
2013-08-29 20:42:00,72.0,69.9,30.07,WNW,284,2.0,3.0,93,0.00,,,0.00,0,Wunderground v.1.15,2013-08-30 00:42:00,
2013-08-29 20:48:00,71.8,69.7,30.07,WNW,283,1.0,3.0,93,0.00,,,0.00,0,Wunderground v.1.15,2013-08-30 00:48:00,
2013-08-29 20:53:00,71.6,69.5,30.07,WNW,283,0.0,2.0,93,0.00,,,0.00,0,Wunderground v.1.15,2013-08-30 00:53:00,
2013-08-29 20:58:00,71.4,69.6,30.07,WNW,284,0.0,2.0,94,0.00,,,0.00,0,Wunderground v.1.15,2013-08-30 00:58:00,
2013-08-29 21:04:00,71.2,69.4,30.07,WNW,284,0.0,1.0,94,0.00,,,0.00,0,Wunderground v.1.15,2013-08-30 01:04:00,
2013-08-29 21:10:00,71.0,69.2,30.08,WNW,284,1.0,1.0,94,0.00,,,0.00,0,Wunderground v.1.15,2013-08-30 01:10:00,
2013-08-29 21:15:00,70.9,69.4,30.08,WNW,283,0.0,1.0,95,0.00,,,0.00,0,Wunderground v.1.15,2013-08-30 01:15:00,
2013-08-29 21:20:00,70.8,69.3,30.08,WNW,284,0.0,0.0,95,0.00,,,0.00,0,Wunderground v.1.15,2013-08-30 01:20:00,
2013-08-29 21:26:00,70.5,69.0,30.08,WNW,283,0.0,0.0,95,0.00,,,0.00,0,Wunderground v.1.15,2013-08-30 01:26:00,
2013-08-29 21:31:00,70.3,68.8,30.08,WNW,283,0.0,0.0,95,0.00,,,0.00,0,Wunderground v.1.15,2013-08-30 01:31:00,
2013-08-29 21:37:00,70.1,68.6,30.08,WNW,284,0.0,2.0,95,0.00,,,0.00,0,Wunderground v.1.15,2013-08-30 01:37:00,
2013-08-29 21:42:00,69.9,68.7,30.08,WNW,283,1.0,1.0,96,0.00,,,0.00,0,Wunderground v.1.15,2013-08-30 01:42:00,
2013-08-29 21:47:00,69.8,68.6,30.08,WNW,284,1.0,1.0,96,0.00,,,0.00,0,Wunderground v.1.15,2013-08-30 01:47:00,
2013-08-29 21:52:00,69.7,68.5,30.09,WNW,284,0.0,0.0,96,0.00,,,0.00,0,Wunderground v.1.15,2013-08-30 01:52:00,
2013-08-29 21:58:00,69.6,68.4,30.09,West,281,0.0,0.0,96,0.00,,,0.00,0,Wunderground v.1.15,2013-08-30 01:58:00,
2013-08-29 22:04:00,69.6,68.7,30.09,WNW,285,0.0,0.0,97,0.00,,,0.00,0,Wunderground v.1.15,2013-08-30 02:04:00,
2013-08-29 22:09:00,69.4,68.5,30.09,WNW,284,0.0,1.0,97,0.00,,,0.00,0,Wunderground v.1.15,2013-08-30 02:09:00,
2013-08-29 22:15:00,69.3,68.4,30.09,WNW,284,1.0,2.0,97,0.00,,,0.00,0,Wunderground v.1.15,2013-08-30 02:15:00,
2013-08-29 22:20:00,69.2,68.3,30.09,WNW,282,1.0,2.0,97,0.00,,,0.00,0,Wunderground v.1.15,2013-08-30 02:20:00,
2013-08-29 22:25:00,69.1,68.2,30.09,WNW,284,1.0,2.0,97,0.00,,,0.00,0,Wunderground v.1.15,2013-08-30 02:25:00,
2013-08-29 22:31:00,68.9,68.0,30.09,WNW,284,1.0,2.0,97,0.00,,,0.00,0,Wunderground v.1.15,2013-08-30 02:31:00,
2013-08-29 22:36:00,68.8,67.9,30.09,WNW,285,1.0,2.0,97,0.00,,,0.00,0,Wunderground v.1.15,2013-08-30 02:36:00,
2013-08-29 22:41:00,68.7,67.8,30.09,WNW,282,1.0,2.0,97,0.00,,,0.00,0,Wunderground v.1.15,2013-08-30 02:41:00,
2013-08-29 22:47:00,68.5,67.6,30.09,WNW,284,1.0,2.0,97,0.00,,,0.00,0,Wunderground v.1.15,2013-08-30 02:47:00,
2013-08-29 22:52:00,68.5,67.6,30.09,WNW,283,1.0,2.0,97,0.00,,,0.00,0,Wunderground v.1.15,2013-08-30 02:52:00,
2013-08-29 22:58:00,68.3,67.4,30.09,WNW,284,0.0,2.0,97,0.00,,,0.00,0,Wunderground v.1.15,2013-08-30 02:58:00,
2013-08-29 23:04:00,68.3,67.7,30.09,WNW,283,0.0,1.0,98,0.00,,,0.00,0,Wunderground v.1.15,2013-08-30 03:04:00,
2013-08-29 23:09:00,68.2,67.6,30.09,WNW,284,1.0,2.0,98,0.00,,,0.00,0,Wunderground v.1.15,2013-08-30 03:09:00,
2013-08-29 23:14:00,68.1,67.5,30.08,WNW,284,0.0,1.0,98,0.00,,,0.00,0,Wunderground v.1.15,2013-08-30 03:14:00,
2013-08-29 23:20:00,68.0,67.4,30.09,West,281,0.0,0.0,98,0.00,,,0.00,0,Wunderground v.1.15,2013-08-30 03:20:00,
2013-08-29 23:25:00,67.9,67.3,30.09,North,360,0.0,1.0,98,0.00,,,0.00,0,Wunderground v.1.15,2013-08-30 03:25:00,
2013-08-29 23:31:00,67.8,67.2,30.09,West,281,1.0,1.0,98,0.00,,,0.00,0,Wunderground v.1.15,2013-08-30 03:31:00,
2013-08-29 23:36:00,67.6,67.0,30.09,WNW,286,1.0,2.0,98,0.00,,,0.00,0,Wunderground v.1.15,2013-08-30 03:36:00,
2013-08-29 23:42:00,67.5,66.9,30.09,WNW,283,1.0,1.0,98,0.00,,,0.00,0,Wunderground v.1.15,2013-08-30 03:42:00,
2013-08-29 23:47:00,67.4,66.8,30.08,WNW,284,0.0,2.0,98,0.00,,,0.00,0,Wunderground v.1.15,2013-08-30 03:47:00,
2013-08-29 23:52:00,67.2,66.6,30.08,WNW,286,1.0,1.0,98,0.00,,,0.00,0,Wunderground v.1.15,2013-08-30 03:52:00,
2013-08-29 23:58:00,67.0,66.4,30.09,West,281,1.0,1.0,98,0.00,,,0.00,0,Wunderground v.1.15,2013-08-30 03:58:00,